Location: Academy at Carrie F Thomas
(32.8490°N, 97.2053°W)
Time: 16:50:39
(UTC+00:00)

Meteor 1-25 Rocket - Pass Details

Date: 08 July 2022
Orbit: 835 x 893 km, 81.2° (Epoch: 18 August)

Event Time Altitude Azimuth Distance (km) Brightness Sun altitude
Exits shadow 08:08:41 42° 104° (ESE) 1,254 5.1 -30.2°
Maximum altitude 08:09:07 42° 92° (E) 1,241 5.1 -30.2°
Drops below altitude 10° 08:14:34 10° 23° (NNE) 2,558 7.6 -29.7°
Sets 08:17:08 0° 17° (NNE) 3,495 8.6 -29.5°
